Regional Weather Roundup
Issued by NWS

Home | Current Version | Previous Version | Graphics & Text | Print | Product List | Glossary On
Versions: 1 2 3 4 5 6 7 8 9 10 11 12 13 14 15 16 17 18 19 20 21 22 23 24 25 26 27 28 29 30 31 32 33 34 35 36 37 38 39 40 41 42 43 44 45 46 47 48 49 50
000
ASUS43 KOAX 261110
RWRNE

WEATHER ROUNDUP FOR NEBRASKA
NATIONAL WEATHER SERVICE OMAHA NE
600 AM CDT THU APR 26 2018

NOTES: SATELLITE DATA IS BEING USED TO AUGMENT CLOUD COVER ABOVE
       12000 FEET.
       "FAIR" INDICATES FEW OR NO CLOUDS BELOW 12,000 FEET WITH NO
       SIGNIFICANT WEATHER AND/OR OBSTRUCTIONS TO VISIBILITY.


NEZ001>004-019>022-054>056-261200-
NEBRASKA PANHANDLE

CITY           SKY/WX    TMP DP  RH WIND       PRES   REMARKS
SCOTTSBLUFF    CLOUDY    50  32  50 NW28G37   30.11R
ALLIANCE       PTCLDY    45  33  63 N18       30.07R
CHADRON        CLOUDY    48  32  53 N22G28    30.12R
GORDON         FAIR      45  33  63 NW16      30.06R
KIMBALL        CLEAR     43  29  59 N17       30.11R
SIDNEY         PTCLDY    46  30  53 N18       30.06R
$$

NEZ057>060-069>072-079>082-261200-
SOUTHWEST NEBRASKA

CITY           SKY/WX    TMP DP  RH WIND       PRES   REMARKS
NORTH PLATTE   CLOUDY    41  34  76 NW7       29.94R
IMPERIAL       CLOUDY    41  34  76 W8        29.93R
LEXINGTON      PTCLDY    39  34  81 SE6       29.92F
MCCOOK         CLOUDY    37  34  89 SE6       29.91F WCI  32
OGALLALA       CLOUDY    53  32  45 N31       29.95R
$$

NEZ005>010-023>029-035>040-094-261200-
NORTH CENTRAL NEBRASKA

CITY           SKY/WX    TMP DP  RH WIND       PRES   REMARKS
VALENTINE      CLOUDY    52  35  52 N15G30    29.96R
AINSWORTH      MOCLDY    47  35  65 N17       29.92R
BROKEN BOW     MOCLDY    35  31  85 CALM      29.91F
O`NEILL        MOCLDY    44  37  76 SW8       29.90S
ORD            PTCLDY    35  33  92 CALM      29.92S
THEDFORD       CLOUDY    47  36  64 NW14      29.95R
$$

NEZ041-046>049-061>064-073>077-083>087-261200-
SOUTH CENTRAL NEBRASKA

CITY           SKY/WX    TMP DP  RH WIND       PRES   REMARKS
GRAND ISLAND   CLOUDY    41  37  86 SW12      29.96F
AURORA         CLOUDY    39  37  92 SW9       29.97S WCI  32
HASTINGS       CLOUDY    38  36  92 SW6       29.98S WCI  33
HEBRON         CLOUDY    34  33  96 CALM      30.00S FOG
HOLDREGE       PTCLDY    37  35  90 S7        29.95F WCI  32
KEARNEY        CLOUDY    35  33  92 S8        29.95F WCI  29
YORK             N/A     39  39 100 W10       29.98S WCI  32
$$

NEZ011>018-030>034-042>045-261200-
NORTHEAST NEBRASKA

CITY           SKY/WX    TMP DP  RH WIND       PRES   REMARKS
NORFOLK        CLOUDY    42  36  79 SW9       29.92F
ALBION         CLOUDY    40  36  86 S5        29.94F
BLAIR          CLOUDY    41  34  75 SW3       29.96S
COLUMBUS       CLOUDY    41  36  82 W6        29.97S
FREMONT        CLOUDY    38  34  86 W5        29.97S WCI  34
TEKAMAH        CLOUDY    35  30  82 SE5       29.96R WCI  31
WAYNE          CLOUDY    40  38  94 S10       29.92F WCI  33
$$

NEZ050>053-065>068-078-088>093-261200-
SOUTHEAST NEBRASKA

CITY           SKY/WX    TMP DP  RH WIND       PRES   REMARKS
LINCOLN        CLOUDY    37  33  85 CALM      29.99S
OMAHA EPPLEY   CLOUDY    41  35  79 E3        29.97S
BEATRICE       CLOUDY    34  32  94 CALM      29.99S
FALLS CITY     CLOUDY    34  32  92 NW7       29.98S WCI  28
NEBRASKA CITY  CLOUDY    40  38  92 W10       29.98R WCI  34
PLATTSMOUTH    MOCLDY    41  34  77 W7        29.97S
$$

NEZ044-045-051>053-067-261200-
OMAHA AREA

CITY           SKY/WX    TMP DP  RH WIND       PRES   REMARKS
OMAHA EPPLEY   CLOUDY    41  35  79 E3        29.97S
BLAIR          CLOUDY    41  34  75 SW3       29.96S
FREMONT        CLOUDY    38  34  86 W5        29.97S WCI  34
MILLARD        CLOUDY    40  35  82 CALM      29.97S
OFFUTT AFB     MOCLDY    34  33  98 S3        29.96S
PLATTSMOUTH    MOCLDY    41  34  77 W7        29.97S
WAHOO          FAIR      42  34  73 W7        29.97S
$$




USA.gov is the U.S. government's official web portal to all federal, state and local government web resources and services.